Date String (YYYY-MM-DD hh:mm:ss) UTC,Instrument flags,Ambient pressure (hPa),Sample flow (lpm),Bypass flow (lpm),Sample temperature (°C),Ambient temperature (°C),ASC tube jacket temperature (°C),LED temperature (°C),Box temperature (°C),Sample RH (%),Span deviation,Mass concentration (μg/m³),Mass concentration (μg/m³),Mass concentration (μg/m³)
DateTimeUTC,F1_M11,P_M11,Q1_M11,Q2_M11,T1_M11,T2_M11,T3_M11,T4_M11,T5_M11,U1_M11,ZSPAN_M11,X0_M11,X2_M11,X1_M11
2023-02-27 11:00:00,,0812.8,4.99,0.00,21.5,20.2,00.0,30.3,23.0,09.0,0000.0,0000.87,0000.48,0000.28
2023-02-27 11:01:00,,0812.7,4.99,0.00,21.4,19.9,00.0,30.3,22.9,09.1,0000.0,0000.88,0000.46,0000.28
2023-02-27 11:02:00,,0812.7,5.00,0.00,21.4,19.7,00.0,30.3,22.7,09.2,0000.0,0000.85,0000.45,0000.28
2023-02-27 11:03:00,,0812.6,5.00,0.00,21.3,19.5,00.0,30.2,22.7,09.1,0000.0,0000.81,0000.43,0000.29
2023-02-27 11:04:00,,0812.6,5.01,0.00,21.2,19.3,00.0,30.2,22.5,09.4,0000.0,0000.71,0000.42,0000.29
2023-02-27 11:05:00,,0812.6,5.04,0.00,21.2,20.1,00.0,30.2,22.7,09.4,0000.0,0000.72,0000.42,0000.29
2023-02-27 11:06:00,,0812.6,5.01,0.00,21.3,21.4,00.0,30.1,23.2,09.4,0000.0,0000.70,0000.41,0000.28
2023-02-27 11:07:00,,0812.5,5.01,0.00,21.5,22.2,00.0,30.2,23.4,09.3,0000.0,0000.68,0000.40,0000.28
2023-02-27 11:08:00,,0812.5,5.00,0.00,21.5,21.7,00.0,30.2,23.3,09.2,0000.0,0000.69,0000.40,0000.27
2023-02-27 11:09:00,,0812.5,5.00,0.00,21.5,21.0,00.0,30.3,23.1,09.2,0000.0,0001.49,0000.38,0000.27
2023-02-27 11:10:00,,0812.4,5.00,0.00,21.4,20.4,00.0,30.3,22.9,09.1,0000.0,0001.91,0000.39,0000.27
2023-02-27 11:11:00,,0812.4,5.00,0.00,21.4,19.9,00.0,30.2,22.8,09.4,0000.0,0001.90,0000.38,0000.27
2023-02-27 11:12:00,,0812.4,5.00,0.00,21.3,19.6,00.0,30.2,22.7,09.7,0000.0,0001.94,0000.40,0000.28
2023-02-27 11:13:00,,0812.6,5.00,0.00,21.3,19.5,00.0,30.2,22.6,09.6,0000.0,0001.97,0000.41,0000.28
2023-02-27 11:14:00,,0812.8,5.01,0.00,21.2,19.3,00.0,30.2,22.6,09.4,0000.0,0001.98,0000.41,0000.28
2023-02-27 11:15:00,,0812.9,5.00,0.00,21.2,19.3,00.0,30.2,22.7,09.2,0000.0,0002.00,0000.41,0000.28
2023-02-27 11:16:00,,0813.0,5.01,0.00,21.2,20.0,00.0,30.1,22.8,09.2,0000.0,0002.12,0000.44,0000.28
2023-02-27 11:17:00,,0813.1,4.97,0.00,21.3,21.6,00.0,30.1,23.2,09.0,0000.0,0002.13,0000.44,0000.28
2023-02-27 11:18:00,,0813.0,4.99,0.00,21.5,22.7,00.0,30.2,23.5,08.8,0000.0,0002.16,0000.45,0000.28
2023-02-27 11:19:00,,0813.1,4.97,0.00,21.6,22.5,00.0,30.2,23.6,08.5,0000.0,0002.18,0000.46,0000.29
2023-02-27 11:20:00,,0813.2,4.97,0.00,21.6,21.9,00.0,30.3,23.5,08.9,0000.0,0001.54,0000.47,0000.29
2023-02-27 11:21:00,,0813.2,5.02,0.00,21.7,21.5,00.0,30.3,23.4,09.0,0000.0,0000.94,0000.46,0000.29
2023-02-27 11:22:00,,0813.2,4.99,0.00,21.7,21.1,00.0,30.3,23.4,08.7,0000.0,0000.98,0000.47,0000.30
2023-02-27 11:23:00,,0813.2,5.02,0.00,21.7,20.8,00.0,30.3,23.4,08.4,0000.0,0000.95,0000.47,0000.29
2023-02-27 11:24:00,,0813.2,4.99,0.00,21.7,20.6,00.0,30.3,23.3,08.6,0000.0,0000.89,0000.45,0000.29
2023-02-27 11:25:00,,0813.2,4.99,0.00,21.6,20.4,00.0,30.3,23.3,08.6,0000.0,0000.93,0000.46,0000.29
2023-02-27 11:26:00,,0813.2,5.00,0.00,21.6,20.2,00.0,30.4,23.3,08.7,0000.0,0001.02,0000.49,0000.29
2023-02-27 11:27:00,,0813.3,5.00,0.00,21.6,20.1,00.0,30.3,23.2,08.7,0000.0,0000.90,0000.46,0000.29
2023-02-27 11:28:00,,0813.5,5.00,0.00,21.6,20.0,00.0,30.3,23.2,08.4,0000.0,0000.85,0000.45,0000.28
2023-02-27 11:29:00,,0813.6,4.99,0.00,21.6,19.9,00.0,30.3,23.2,08.3,0000.0,0000.81,0000.43,0000.28
2023-02-27 11:30:00,,0814.0,4.99,0.00,21.6,19.9,00.0,30.3,23.2,08.3,0000.0,0000.86,0000.44,0000.28
2023-02-27 11:31:00,,0814.0,5.00,0.00,21.6,19.9,00.0,30.3,23.2,08.8,0000.0,0000.89,0000.46,0000.27
2023-02-27 11:32:00,,0814.1,5.00,0.00,21.6,19.8,00.0,30.3,23.2,08.9,0000.0,0000.93,0000.47,0000.27
2023-02-27 11:33:00,,0814.1,5.01,0.00,21.6,20.3,00.0,30.3,23.3,09.0,0000.0,0000.86,0000.44,0000.26
2023-02-27 11:34:00,,0814.0,5.04,0.00,21.7,21.6,00.0,30.3,23.6,08.9,0000.0,0000.91,0000.45,0000.26
2023-02-27 11:35:00,,0814.2,5.04,0.00,21.8,22.9,00.0,30.3,23.9,08.7,0000.0,0000.95,0000.48,0000.26
2023-02-27 11:36:00,,0814.2,5.01,0.00,21.9,22.8,00.0,30.4,23.9,08.5,0000.0,0000.94,0000.48,0000.26
2023-02-27 11:37:00,,0813.9,4.99,0.00,22.0,22.2,00.0,30.5,23.9,08.5,0000.0,0000.85,0000.45,0000.25
2023-02-27 11:38:00,,0813.9,4.99,0.00,22.0,21.7,00.0,30.5,23.8,08.5,0000.0,0000.83,0000.45,0000.25
2023-02-27 11:39:00,,0813.9,5.00,0.00,21.9,21.3,00.0,30.5,23.6,08.6,0000.0,0000.82,0000.44,0000.26
2023-02-27 11:40:00,,0813.7,5.00,0.00,21.9,20.9,00.0,30.5,23.5,08.6,0000.0,0000.85,0000.46,0000.26
2023-02-27 11:41:00,,0813.8,5.00,0.00,21.9,20.7,00.0,30.5,23.5,08.7,0000.0,0000.82,0000.45,0000.27
2023-02-27 11:42:00,,0813.5,5.00,0.00,21.9,20.4,00.0,30.5,23.4,08.9,0000.0,0000.78,0000.43,0000.27
2023-02-27 11:43:00,,0814.2,5.00,0.00,21.8,20.2,00.0,30.5,23.4,09.0,0000.0,0000.74,0000.42,0000.27
2023-02-27 11:44:00,,0814.2,5.00,0.00,21.8,20.1,00.0,30.5,23.2,08.9,0000.0,0000.89,0000.44,0000.28
2023-02-27 11:45:00,,0814.2,5.00,0.00,21.7,19.9,00.0,30.5,23.1,09.1,0000.0,0001.15,0000.43,0000.28
2023-02-27 11:46:00,,0814.3,4.99,0.00,21.6,19.8,00.0,30.5,23.1,09.1,0000.0,0002.13,0000.41,0000.28
2023-02-27 11:47:00,,0814.2,5.02,0.00,21.6,19.7,00.0,30.5,23.1,09.1,0000.0,0003.41,0000.40,0000.28
2023-02-27 11:48:00,,0814.3,5.00,0.00,21.6,19.6,00.0,30.4,23.0,09.2,0000.0,0003.92,0000.42,0000.29
2023-02-27 11:49:00,,0814.1,4.99,0.00,21.5,20.1,00.0,30.4,23.1,09.4,0000.0,0004.06,0000.43,0000.28
2023-02-27 11:50:00,,0813.9,4.97,0.00,21.7,21.4,00.0,30.4,23.5,09.3,0000.0,0004.09,0000.44,0000.28
2023-02-27 11:51:00,,0813.9,5.04,0.00,21.8,22.5,00.0,30.4,23.8,09.2,0000.0,0004.06,0000.44,0000.28
2023-02-27 11:52:00,,0814.0,5.00,0.00,21.9,22.5,00.0,30.5,23.9,09.2,0000.0,0004.11,0000.44,0000.27
2023-02-27 11:53:00,,0813.9,4.99,0.00,21.9,22.0,00.0,30.5,23.8,09.3,0000.0,0004.20,0000.46,0000.27
2023-02-27 11:54:00,,0813.9,5.01,0.00,21.9,21.6,00.0,30.5,23.7,09.4,0000.0,0004.31,0000.48,0000.26
2023-02-27 11:55:00,,0813.9,4.99,0.00,21.9,21.1,00.0,30.6,23.6,09.3,0000.0,0004.14,0000.49,0000.26
2023-02-27 11:56:00,,0814.1,4.99,0.00,21.9,20.8,00.0,30.6,23.6,09.2,0000.0,0003.84,0000.48,0000.26
2023-02-27 11:57:00,,0814.3,5.00,0.00,21.9,20.6,00.0,30.6,23.5,09.4,0000.0,0002.78,0000.49,0000.26
2023-02-27 11:58:00,,0814.2,5.00,0.00,21.9,20.4,00.0,30.6,23.4,09.4,0000.0,0001.55,0000.51,0000.26
2023-02-27 11:59:00,,0813.9,5.00,0.00,21.8,20.2,00.0,30.6,23.4,09.6,0000.0,0001.14,0000.50,0000.25
